Time,TemperatureF,DewpointF,PressureIn,WindDirection,WindDirectionDegrees,WindSpeedMPH,WindSpeedGustMPH,Humidity,HourlyPrecipIn,Conditions,Clouds,dailyrainin,SolarRadiationWatts/m^2,SoftwareType,DateUTC
2013-02-16 00:01:00,2.0,-3.0,-100.00,West,262,5.0,8.0,79,0.00,,,0.00,0.000000,,2013-02-16 05:01:00,
2013-02-16 00:32:00,3.0,-2.0,-100.00,West,281,4.0,8.0,79,0.00,,,0.00,0.000000,,2013-02-16 05:32:00,
2013-02-16 00:42:00,3.0,-2.0,-100.00,West,281,4.0,8.0,79,0.00,,,0.00,0.000000,,2013-02-16 05:42:00,
2013-02-16 00:52:00,3.0,-2.0,-100.00,West,281,4.0,8.0,79,0.00,,,0.00,0.000000,,2013-02-16 05:52:00,
2013-02-16 01:02:00,3.0,-2.0,-100.00,West,281,4.0,8.0,79,0.00,,,0.00,0.000000,,2013-02-16 06:02:00,
2013-02-16 01:11:00,3.0,-2.0,-100.00,West,281,4.0,8.0,79,0.00,,,0.00,0.000000,,2013-02-16 06:11:00,
2013-02-16 01:42:00,2.0,-3.0,-100.00,WNW,284,4.0,8.0,80,0.00,,,0.00,0.000000,,2013-02-16 06:42:00,
2013-02-16 01:52:00,2.0,-3.0,-100.00,WNW,284,4.0,8.0,80,0.00,,,0.00,0.000000,,2013-02-16 06:52:00,
2013-02-16 02:02:00,2.0,-3.0,-100.00,WNW,284,4.0,8.0,80,0.00,,,0.00,0.000000,,2013-02-16 07:02:00,
2013-02-16 02:11:00,2.0,-3.0,-100.00,WNW,284,4.0,8.0,80,0.00,,,0.00,0.000000,,2013-02-16 07:11:00,
2013-02-16 02:32:00,2.0,-3.0,-100.00,WNW,290,4.0,7.0,79,0.00,,,0.00,0.000000,,2013-02-16 07:32:00,
2013-02-16 02:42:00,2.0,-3.0,-100.00,WNW,290,4.0,7.0,79,0.00,,,0.00,0.000000,,2013-02-16 07:42:00,
2013-02-16 02:53:00,2.0,-3.0,-100.00,WNW,290,4.0,7.0,79,0.00,,,0.00,0.000000,,2013-02-16 07:53:00,
2013-02-16 03:01:00,2.0,-3.0,-100.00,WNW,290,4.0,7.0,79,0.00,,,0.00,0.000000,,2013-02-16 08:01:00,
2013-02-16 03:11:00,2.0,-3.0,-100.00,WNW,290,4.0,7.0,79,0.00,,,0.00,0.000000,,2013-02-16 08:11:00,
2013-02-16 03:32:00,2.0,-3.0,-100.00,WNW,298,5.0,8.0,78,0.00,,,0.00,0.000000,,2013-02-16 08:32:00,
2013-02-16 03:42:00,2.0,-3.0,-100.00,WNW,298,5.0,8.0,78,0.00,,,0.00,0.000000,,2013-02-16 08:42:00,
2013-02-16 03:52:00,2.0,-3.0,-100.00,WNW,298,5.0,8.0,78,0.00,,,0.00,0.000000,,2013-02-16 08:52:00,
2013-02-16 04:01:00,2.0,-3.0,-100.00,WNW,298,5.0,8.0,78,0.00,,,0.00,0.000000,,2013-02-16 09:01:00,
2013-02-16 04:11:00,2.0,-3.0,-100.00,WNW,298,5.0,8.0,78,0.00,,,0.00,0.000000,,2013-02-16 09:11:00,
2013-02-16 04:42:00,2.0,-3.0,-100.00,WNW,301,6.0,11.0,78,0.00,,,0.00,0.000000,,2013-02-16 09:42:00,
2013-02-16 04:52:00,2.0,-3.0,-100.00,WNW,301,6.0,11.0,78,0.00,,,0.00,0.000000,,2013-02-16 09:52:00,
2013-02-16 05:01:00,2.0,-3.0,-100.00,WNW,301,6.0,11.0,78,0.00,,,0.00,0.000000,,2013-02-16 10:01:00,
2013-02-16 05:11:00,2.0,-3.0,-100.00,WNW,301,6.0,11.0,78,0.00,,,0.00,0.000000,,2013-02-16 10:11:00,
2013-02-16 05:42:00,3.0,-2.0,-100.00,WNW,299,4.0,9.0,78,0.00,,,0.00,0.000000,,2013-02-16 10:42:00,
2013-02-16 05:52:00,3.0,-2.0,-100.00,WNW,299,4.0,9.0,78,0.00,,,0.00,0.000000,,2013-02-16 10:52:00,
2013-02-16 06:02:00,3.0,-2.0,-100.00,WNW,299,4.0,9.0,78,0.00,,,0.00,0.000000,,2013-02-16 11:02:00,
2013-02-16 06:11:00,3.0,-2.0,-100.00,WNW,299,4.0,9.0,78,0.00,,,0.00,0.000000,,2013-02-16 11:11:00,
2013-02-16 06:12:00,3.0,-3.0,-100.00,NW,306,4.0,8.0,77,0.00,,,0.00,0.000000,,2013-02-16 11:12:00,
2013-02-16 06:32:00,3.0,-3.0,-100.00,NW,306,4.0,8.0,77,0.00,,,0.00,0.000000,,2013-02-16 11:32:00,
2013-02-16 06:42:00,3.0,-3.0,-100.00,NW,306,4.0,8.0,77,0.00,,,0.00,0.000000,,2013-02-16 11:42:00,
2013-02-16 06:52:00,3.0,-3.0,-100.00,NW,306,4.0,8.0,77,0.00,,,0.00,0.000000,,2013-02-16 11:52:00,
2013-02-16 07:01:00,3.0,-3.0,-100.00,NW,306,4.0,8.0,77,0.00,,,0.00,0.000000,,2013-02-16 12:01:00,
2013-02-16 07:32:00,2.0,-3.0,-100.00,WNW,302,3.0,6.0,78,0.00,,,0.00,0.000000,,2013-02-16 12:32:00,
2013-02-16 07:42:00,2.0,-3.0,-100.00,WNW,302,3.0,6.0,78,0.00,,,0.00,0.000000,,2013-02-16 12:42:00,
2013-02-16 07:52:00,2.0,-3.0,-100.00,WNW,302,3.0,6.0,78,0.00,,,0.00,0.000000,,2013-02-16 12:52:00,
2013-02-16 08:02:00,2.0,-3.0,-100.00,WNW,302,3.0,6.0,78,0.00,,,0.00,0.000000,,2013-02-16 13:02:00,
2013-02-16 08:11:00,2.0,-3.0,-100.00,WNW,302,3.0,6.0,78,0.00,,,0.00,0.000000,,2013-02-16 13:11:00,
2013-02-16 09:42:00,5.0,-2.0,-100.00,NW,312,5.0,10.0,73,-99.99,,,0.00,59.000000,,2013-02-16 14:42:00,
2013-02-16 09:52:00,5.0,-2.0,-100.00,NW,312,5.0,10.0,73,-99.99,,,0.00,59.000000,,2013-02-16 14:52:00,
2013-02-16 10:01:00,5.0,-2.0,-100.00,NW,312,5.0,10.0,73,-99.99,,,0.00,59.000000,,2013-02-16 15:01:00,
2013-02-16 10:11:00,5.0,-2.0,-100.00,NW,312,5.0,10.0,73,-99.99,,,0.00,59.000000,,2013-02-16 15:11:00,
2013-02-16 10:42:00,11.0,2.0,-100.00,NW,321,7.0,11.0,65,0.00,,,0.00,250.000000,,2013-02-16 15:42:00,
2013-02-16 10:52:00,11.0,2.0,-100.00,NW,321,7.0,11.0,65,0.00,,,0.00,250.000000,,2013-02-16 15:52:00,
2013-02-16 11:01:00,11.0,2.0,-100.00,NW,321,7.0,11.0,65,0.00,,,0.00,250.000000,,2013-02-16 16:01:00,
2013-02-16 11:11:00,11.0,2.0,-100.00,NW,321,7.0,11.0,65,0.00,,,0.00,250.000000,,2013-02-16 16:11:00,
2013-02-16 11:32:00,14.0,-2.0,-100.00,NW,318,9.0,16.0,48,0.00,,,0.00,433.000000,,2013-02-16 16:32:00,
2013-02-16 11:42:00,14.0,-2.0,-100.00,NW,318,9.0,16.0,48,0.00,,,0.00,433.000000,,2013-02-16 16:42:00,
2013-02-16 11:52:00,14.0,-2.0,-100.00,NW,318,9.0,16.0,48,0.00,,,0.00,433.000000,,2013-02-16 16:52:00,
2013-02-16 12:01:00,14.0,-2.0,-100.00,NW,318,9.0,16.0,48,0.00,,,0.00,433.000000,,2013-02-16 17:01:00,
2013-02-16 12:11:00,14.0,-2.0,-100.00,NW,318,9.0,16.0,48,0.00,,,0.00,433.000000,,2013-02-16 17:11:00,
2013-02-16 12:42:00,15.0,-2.0,-100.00,NNW,335,8.0,15.0,47,0.00,,,0.00,564.000000,,2013-02-16 17:42:00,
2013-02-16 12:52:00,15.0,-2.0,-100.00,NNW,335,8.0,15.0,47,0.00,,,0.00,564.000000,,2013-02-16 17:52:00,
2013-02-16 13:02:00,15.0,-2.0,-100.00,NNW,335,8.0,15.0,47,0.00,,,0.00,564.000000,,2013-02-16 18:02:00,
2013-02-16 13:11:00,15.0,-2.0,-100.00,NNW,335,8.0,15.0,47,0.00,,,0.00,564.000000,,2013-02-16 18:11:00,
2013-02-16 13:33:00,17.0,-1.0,-100.00,NNW,329,7.0,14.0,45,0.00,,,0.00,617.000000,,2013-02-16 18:33:00,
2013-02-16 13:42:00,17.0,-1.0,-100.00,NNW,329,7.0,14.0,45,0.00,,,0.00,617.000000,,2013-02-16 18:42:00,
2013-02-16 13:52:00,17.0,-1.0,-100.00,NNW,329,7.0,14.0,45,0.00,,,0.00,617.000000,,2013-02-16 18:52:00,
2013-02-16 14:02:00,17.0,-1.0,-100.00,NNW,329,7.0,14.0,45,0.00,,,0.00,617.000000,,2013-02-16 19:02:00,
2013-02-16 14:11:00,17.0,-1.0,-100.00,NNW,329,7.0,14.0,45,0.00,,,0.00,617.000000,,2013-02-16 19:11:00,
2013-02-16 14:42:00,16.0,-2.0,-100.00,North,356,6.0,12.0,44,0.00,,,0.00,412.000000,,2013-02-16 19:42:00,
2013-02-16 14:52:00,16.0,-2.0,-100.00,North,356,6.0,12.0,44,0.00,,,0.00,412.000000,,2013-02-16 19:52:00,
2013-02-16 15:01:00,16.0,-2.0,-100.00,North,356,6.0,12.0,44,0.00,,,0.00,412.000000,,2013-02-16 20:01:00,
2013-02-16 15:11:00,16.0,-2.0,-100.00,North,356,6.0,12.0,44,0.00,,,0.00,412.000000,,2013-02-16 20:11:00,
2013-02-16 15:42:00,16.0,1.0,-100.00,NW,318,5.0,15.0,50,0.00,,,0.00,275.000000,,2013-02-16 20:42:00,
2013-02-16 15:52:00,16.0,1.0,-100.00,NW,318,5.0,15.0,50,0.00,,,0.00,275.000000,,2013-02-16 20:52:00,
2013-02-16 16:02:00,16.0,1.0,-100.00,NW,318,5.0,15.0,50,0.00,,,0.00,275.000000,,2013-02-16 21:02:00,
2013-02-16 16:11:00,16.0,1.0,-100.00,NW,318,5.0,15.0,50,0.00,,,0.00,275.000000,,2013-02-16 21:11:00,
2013-02-16 16:42:00,17.0,1.0,-100.00,North,352,7.0,14.0,48,0.00,,,0.00,398.000000,,2013-02-16 21:42:00,
2013-02-16 16:52:00,17.0,1.0,-100.00,North,352,7.0,14.0,48,0.00,,,0.00,398.000000,,2013-02-16 21:52:00,
2013-02-16 17:01:00,17.0,1.0,-100.00,North,352,7.0,14.0,48,0.00,,,0.00,398.000000,,2013-02-16 22:01:00,
2013-02-16 17:11:00,17.0,1.0,-100.00,North,352,7.0,14.0,48,0.00,,,0.00,398.000000,,2013-02-16 22:11:00,
2013-02-16 17:32:00,15.0,-2.0,-100.00,North,349,4.0,11.0,45,0.00,,,0.00,107.000000,,2013-02-16 22:32:00,
2013-02-16 18:02:00,15.0,-2.0,-100.00,North,349,4.0,11.0,45,0.00,,,0.00,107.000000,,2013-02-16 23:02:00,
2013-02-16 18:11:00,15.0,-2.0,-100.00,North,349,4.0,11.0,45,0.00,,,0.00,107.000000,,2013-02-16 23:11:00,
2013-02-16 18:12:00,13.0,-1.0,-100.00,North,352,3.0,7.0,53,0.00,,,0.00,97.000000,,2013-02-16 23:12:00,
2013-02-16 18:32:00,13.0,-1.0,-100.00,North,352,3.0,7.0,53,0.00,,,0.00,97.000000,,2013-02-16 23:32:00,
2013-02-16 18:42:00,13.0,-1.0,-100.00,North,352,3.0,7.0,53,0.00,,,0.00,97.000000,,2013-02-16 23:42:00,
2013-02-16 18:52:00,13.0,-1.0,-100.00,North,352,3.0,7.0,53,0.00,,,0.00,97.000000,,2013-02-16 23:52:00,
2013-02-16 19:02:00,13.0,-1.0,-100.00,North,352,3.0,7.0,53,0.00,,,0.00,97.000000,,2013-02-17 00:02:00,
2013-02-16 19:32:00,10.0,2.0,-100.00,NW,321,4.0,10.0,68,0.00,,,0.00,1.000000,,2013-02-17 00:32:00,
2013-02-16 19:42:00,10.0,2.0,-100.00,NW,321,4.0,10.0,68,0.00,,,0.00,1.000000,,2013-02-17 00:42:00,
2013-02-16 19:52:00,10.0,2.0,-100.00,NW,321,4.0,10.0,68,0.00,,,0.00,1.000000,,2013-02-17 00:52:00,
2013-02-16 20:01:00,10.0,2.0,-100.00,NW,321,4.0,10.0,68,0.00,,,0.00,1.000000,,2013-02-17 01:01:00,
2013-02-16 20:11:00,10.0,2.0,-100.00,NW,321,4.0,10.0,68,0.00,,,0.00,1.000000,,2013-02-17 01:11:00,
2013-02-16 21:42:00,7.0,-1.0,-100.00,NW,317,4.0,9.0,70,-99.99,,,0.00,0.000000,,2013-02-17 02:42:00,
2013-02-16 21:52:00,7.0,-1.0,-100.00,NW,317,4.0,9.0,70,-99.99,,,0.00,0.000000,,2013-02-17 02:52:00,
2013-02-16 22:02:00,7.0,-1.0,-100.00,NW,317,4.0,9.0,70,-99.99,,,0.00,0.000000,,2013-02-17 03:02:00,
2013-02-16 22:11:00,7.0,-1.0,-100.00,NW,317,4.0,9.0,70,-99.99,,,0.00,0.000000,,2013-02-17 03:11:00,
2013-02-16 22:32:00,3.0,-3.0,-100.00,WNW,301,2.0,7.0,77,0.00,,,0.00,0.000000,,2013-02-17 03:32:00,
2013-02-16 22:42:00,3.0,-3.0,-100.00,WNW,301,2.0,7.0,77,0.00,,,0.00,0.000000,,2013-02-17 03:42:00,
2013-02-16 22:52:00,3.0,-3.0,-100.00,WNW,301,2.0,7.0,77,0.00,,,0.00,0.000000,,2013-02-17 03:52:00,
2013-02-16 23:01:00,3.0,-3.0,-100.00,WNW,301,2.0,7.0,77,0.00,,,0.00,0.000000,,2013-02-17 04:01:00,
2013-02-16 23:11:00,3.0,-3.0,-100.00,WNW,301,2.0,7.0,77,0.00,,,0.00,0.000000,,2013-02-17 04:11:00,
2013-02-16 23:12:00,0.0,-5.0,-100.00,West,281,2.0,4.0,79,0.00,,,0.00,0.000000,,2013-02-17 04:12:00,
2013-02-16 23:42:00,0.0,-5.0,-100.00,West,281,2.0,4.0,79,0.00,,,0.00,0.000000,,2013-02-17 04:42:00,
2013-02-16 23:52:00,0.0,-5.0,-100.00,West,281,2.0,4.0,79,0.00,,,0.00,0.000000,,2013-02-17 04:52:00,